                ,  0.865,  0.962,  1.058,  1.155,  1.251,  1.348,  1.445,  1.541,  1.638,  1.734,  1.831,  1.928,  2.024,  2.121,  2.217,  2.314,  2.410,  2.507,  2.604,  2.700,  2.797,  2.893,  2.990,  3.087,  3.183,  3.280,  3.376,  3.473,  3.570,  3.666,  3.763,  3.859,  3.956,  4.053,  4.149,  4.246,  4.342,  4.439,  4.536,  4.632,  4.729,  4.825,  4.922,  5.018,  5.115,  5.212,  5.308,  5.405,  5.501,  5.598,  5.695,  5.791
1998/12/21 00:00,  999.0,  999.0,  999.0,  999.0,  999.0,  999.0,  999.0,   12.9,   12.5,   13.0,   14.1,   12.9,   14.0,  999.0,   14.5,  999.0,  999.0,  999.0,  999.0,  999.0,  999.0,  999.0,  999.0,  999.0,    0.1,    0.1,    0.1,    0.1,  999.0,  999.0,  999.0,   -0.0,    0.0,    0.3,  999.0,  999.0,  999.0,    0.1,    0.1,  999.0,  999.0,  999.0,  999.0,  999.0,  999.0,  999.0,    0.3,    0.2,   -0.1,    0.8,    0.1,    0.3
1998/12/21 00:10,  999.0,  999.0,  999.0,  999.0,  999.0,  999.0,   12.4,   12.7,   12.7,   13.0,   13.3,   13.9,  999.0,   14.9,   15.6,  999.0,  999.0,  999.0,  999.0,  999.0,  999.0,  999.0,  999.0,  999.0,   -0.3,    0.1,   -0.1,   -0.0,  999.0,  999.0,  999.0,  999.0,    0.1,  999.0,   -0.2,  999.0,    0.1,   -0.3,    0.0,    0.3,  999.0,  999.0,  999.0,  999.0,  999.0,  999.0,   -0.5,   -0.1,    0.1,   -0.2,    0.1,   -0.1
1998/12/21 00:20,  999.0,  999.0,  999.0,  999.0,  999.0,  999.0,   11.4,   11.4,   12.0,   12.7,   13.4,   13.3,   15.0,   14.1,   15.4,  999.0,  999.0,  999.0,  999.0,  999.0,  999.0,  999.0,  999.0,  999.0,    0.3,    0.4,   -0.6,    0.6,  999.0,  999.0,   -0.2,  999.0,    0.1,    0.2,  999.0,    0.7,    0.0,    0.2,    0.5,  999.0,  999.0,  999.0,  999.0,  999.0,  999.0,  999.0,   -0.1,   -0.7,    0.3,   -0.3,    0.5,  999.0
1998/12/21 00:30,  999.0,  999.0,  999.0,  999.0,  999.0,  999.0,  999.0,   11.7,   13.1,   13.4,   13.7,   14.2,   14.6,  999.0,  999.0,  999.0,  999.0,  999.0,  999.0,  999.0,  999.0,  999.0,  999.0,   -1.3,   -0.3,   -0.2,  999.0,    0.2,  999.0,  999.0,  999.0,    0.1,    0.2,    0.1,    0.0,    0.2,    0.3,  999.0,  999.0,    0.5,  999.0,  999.0,  999.0,  999.0,  999.0,   -0.4,    0.4,   -0.1,   -0.1,  999.0,    0.1,  999.0
1998/12/21 00:40,  999.0,  999.0,  999.0,  999.0,  999.0,  999.0,   11.5,   12.1,   13.0,   13.3,   13.1,   14.4,   14.2,   14.0,   14.8,  999.0,  999.0,  999.0,  999.0,  999.0,  999.0,  999.0,  999.0,  999.0,   -0.3,   -0.2,   -0.1,   -0.2,  999.0,  999.0,  999.0,   -0.1,   -0.5,    0.1,  999.0,  999.0,    0.1,   -0.4,   -0.3,   -0.2,  999.0,  999.0,  999.0,  999.0,  999.0,  999.0,   -1.1,   -0.3,   -0.0,  999.0,   -0.3,  999.0
1998/12/21 00:50,  999.0,  999.0,  999.0,  999.0,  999.0,  999.0,   10.4,   10.7,   11.8,   12.5,   13.5,   13.9,   13.8,   13.7,   14.5,  999.0,  999.0,  999.0,  999.0,  999.0,  999.0,  999.0,  999.0,   -1.5,  999.0,   -0.3,   -0.1,  999.0,  999.0,  999.0,  999.0,   -0.3,   -0.2,  999.0,   -0.1,    0.4,  999.0,    0.4,    0.5,    0.3,  999.0,  999.0,  999.0,  999.0,  999.0,   -0.3,    0.1,   -0.3,    0.3,   -0.1,    0.4,  999.0
1998/12/21 01:00,  999.0,  999.0,  999.0,  999.0,  999.0,  999.0,  999.0,   11.9,   12.8,   13.1,   14.1,   14.7,  999.0,   14.7,   14.5,   15.0,  999.0,  999.0,  999.0,  999.0,  999.0,  999.0,  999.0,  999.0,   -0.3,    0.4,    0.0,   -0.0,  999.0,  999.0,  999.0,    0.6,    0.4,   -0.1,    0.7,    0.1,    0.1,    0.1,    0.3,    0.1,  999.0,  999.0,  999.0,  999.0,  999.0,   -0.2,   -0.2,   -0.2,   -0.1,    0.1,   -0.3,  999.0
1998/12/21 01:10,  999.0,  999.0,  999.0,  999.0,  999.0,  999.0,  999.0,   11.3,   12.4,   12.3,   12.8,   13.3,   13.4,   14.6,   15.3,   15.0,  999.0,  999.0,  999.0,  999.0,  999.0,  999.0,  999.0,  999.0,  999.0,   -0.1,   -0.1,  999.0,  999.0,  999.0,  999.0,  999.0,  999.0,  999.0,   -0.1,  999.0,   -0.3,  999.0,    0.4,    0.1,  999.0,  999.0,  999.0,  999.0,  999.0,    0.2,   -0.1,   -0.0,  999.0,    0.3,    0.2,  999.0
1998/12/21 01:20,  999.0,  999.0,  999.0,  999.0,  999.0,  999.0,   10.9,   12.1,   12.2,  999.0,   12.3,   13.6,   13.6,   15.0,   14.6,   14.7,  999.0,  999.0,  999.0,  999.0,  999.0,  999.0,  999.0,  999.0,   -0.7,   -0.2,   -0.1,   -0.3,  999.0,  999.0,  999.0,  999.0,   -0.4,   -0.5,   -0.4,   -0.5,   -0.3,  999.0,   -0.3,  999.0,  999.0,  999.0,  999.0,  999.0,  999.0,   -0.2,    0.0,  999.0,   -0.4,  999.0,    0.0,  999.0
1998/12/21 01:30,  999.0,  999.0,  999.0,  999.0,  999.0,  999.0,  999.0,  999.0,  999.0,   13.5,   13.9,   13.5,   13.8,   14.7,   16.1,  999.0,  999.0,  999.0,  999.0,  999.0,  999.0,  999.0,  999.0,  999.0,   -0.7,   -0.3,   -0.4,   -0.3,  999.0,  999.0,  999.0,  999.0,  999.0,  999.0,    0.1,  999.0,    0.0,   -0.2,    0.3,    0.0,  999.0,  999.0,  999.0,  999.0,  999.0,   -0.4,    0.3,  999.0,  999.0,  999.0,   -0.2,  999.0
1998/12/21 01:40,  999.0,  999.0,  999.0,  999.0,  999.0,  999.0,  999.0,  999.0,  999.0,   13.9,   14.5,   15.1,   15.9,   16.0,   16.0,   17.0,   17.4,  999.0,  999.0,  999.0,  999.0,  999.0,  999.0,  999.0,   -0.3,    0.1,    0.3,   -0.1,  999.0,  999.0,  999.0,  999.0,   -0.2,   -0.2,    0.0,  999.0,    0.3,    0.0,   -0.4,  999.0,  999.0,  999.0,  999.0,  999.0,  999.0,   -0.7,   -0.0,    0.1,    0.1,   -0.0,   -0.1,  999.0
1998/12/21 01:50,  999.0,  999.0,  999.0,  999.0,  999.0,  999.0,  999.0,  999.0,  999.0,   14.2,   14.2,   14.9,   16.4,   17.1,   16.4,  999.0,  999.0,  999.0,  999.0,  999.0,  999.0,  999.0,  999.0,  999.0,   -0.3,    0.7,    0.4,    0.5,  999.0,  999.0,  999.0,   -0.2,    0.1,    0.2,    0.2,   -0.2,    0.1,  999.0,    0.1,  999.0,  999.0,  999.0,  999.0,  999.0,  999.0,  999.0,   -0.1,   -0.2,    0.1,  999.0,   -0.2,   -0.1
1998/12/21 02:00,  999.0,  999.0,  999.0,  999.0,  999.0,  999.0,   10.8,   10.9,   12.6,   13.8,   15.1,   15.8,   16.8,   17.3,   17.8,   18.0,   18.5,   17.8,   17.7,  999.0,  999.0,  999.0,  999.0,  999.0,  999.0,    0.0,   -0.3,    0.3,  999.0,  999.0,    0.1,   -0.1,    0.0,  999.0,   -0.7,  999.0,    0.0,  999.0,    0.3,   -0.3,  999.0,  999.0,  999.0,  999.0,  999.0,    0.1,   -0.2,   -0.4,   -0.4,    0.1,   -0.3,  999.0
1998/12/21 02:10,  999.0,  999.0,  999.0,  999.0,  999.0,  999.0,   12.9,   13.0,   14.5,   14.6,   14.9,   15.3,   15.0,   15.6,   17.3,   17.7,   17.6,   18.7,   18.3,   18.1,   17.1,   17.8,   17.9,  999.0,    0.2,   -0.1,   -0.4,   -0.3,  999.0,  999.0,    0.7,   -0.2,    0.1,   -0.1,   -0.1,   -0.0,   -0.0,   -0.1,    0.1,   -0.3,   -1.1,  999.0,  999.0,  999.0,  999.0,   -0.1,    0.1,  999.0,   -0.4,    0.2,    0.3,   -0.2
1998/12/21 02:20,  999.0,  999.0,  999.0,  999.0,  999.0,  999.0,   11.7,   11.9,   14.1,   15.3,   15.8,   16.7,   16.7,   17.2,   16.5,   15.8,   16.3,   17.3,   17.0,   16.8,   16.8,   17.0,   16.9,  999.0,  999.0,    0.3,    0.1,   -0.4,  999.0,  999.0,  999.0,   -0.1,  999.0,    0.1,  999.0,    0.6,    0.9,    0.2,    0.1,    0.1,   -0.2,  999.0,  999.0,  999.0,  999.0,   -0.1,    0.4,    0.0,  999.0,   -0.3,   -0.2,    0.0
1998/12/21 02:30,  999.0,  999.0,  999.0,  999.0,  999.0,  999.0,   13.3,   14.3,   17.8,   19.8,   19.3,   17.3,   16.1,   16.4,   16.6,   17.0,   16.5,   16.2,   16.6,   17.3,   16.3,   15.7,   15.8,   -0.5,   -0.4,   -0.1,   -0.4,   -0.2,  999.0,   -0.1,    0.6,    0.3,   -0.1,    0.1,    0.4,    0.2,    0.4,   -0.0,    0.3,   -0.1,   -0.3,  999.0,  999.0,  999.0,  999.0,   -0.2,    0.6,    0.9,   -0.3,    0.0,   -0.3,  999.0
1998/12/21 02:40,  999.0,  999.0,  999.0,  999.0,  999.0,  999.0,   11.5,   12.1,   12.9,   15.0,   15.5,   15.6,   16.3,   16.1,   15.9,   15.8,   15.6,   16.1,   16.5,   17.5,   17.7,   16.7,   17.3,  999.0,  999.0,   -0.9,   -0.1,   -0.2,  999.0,  999.0,    0.3,   -0.1,    0.0,    0.1,    0.1,    0.0,    0.1,   -0.3,   -0.1,   -0.3,   -0.5,  999.0,    0.0,  999.0,  999.0,    0.8,    0.2,   -0.1,    0.1,   -0.2,    0.2,   -0.3
1998/12/21 02:50,  999.0,  999.0,  999.0,  999.0,  999.0,  999.0,  999.0,   10.3,   13.5,   12.9,   14.1,   17.3,   17.0,   15.8,   15.2,   14.7,   15.1,   15.7,   15.6,  999.0,   17.2,   15.8,   16.5,   16.8,  999.0,  999.0,   -0.3,  999.0,  999.0,  999.0,   -0.4,   -0.0,   -0.3,   -0.1,   -0.1,    0.1,   -0.7,    0.0,    0.1,   -0.2,  999.0,  999.0,  999.0,  999.0,  999.0,    0.0,   -0.3,  999.0,   -0.1,    0.1,    0.0,  999.0
1998/12/21 03:00,  999.0,  999.0,  999.0,  999.0,  999.0,  999.0,  999.0,   13.3,   13.3,   14.1,   11.8,   12.0,   13.5,   16.8,   17.1,   15.7,   14.9,   14.0,   13.8,   17.0,   15.1,   17.8,   16.6,  999.0,  999.0,  999.0,    0.0,   -0.5,  999.0,  999.0,  999.0,   -0.1,   -0.0,    0.1,   -0.5,   -0.1,    0.1,   -0.1,    0.1,    0.3,  999.0,  999.0,  999.0,  999.0,  999.0,   -0.0,    0.1,   -0.1,    0.1,  999.0,    0.2,    0.1
1998/12/21 03:10,  999.0,  999.0,  999.0,  999.0,  999.0,  999.0,    9.6,   12.1,   12.6,   15.2,   12.5,   13.7,   13.8,   16.9,   17.6,   17.3,   14.2,   13.8,  999.0,   16.9,  999.0,  999.0,  999.0,  999.0,   -0.3,   -0.3,   -0.2,    0.1,  999.0,  999.0,    0.1,    0.2,    0.1,   -0.0,   -0.2,   -0.3,  999.0,    0.0,    0.2,   -0.4,  999.0,  999.0,  999.0,  999.0,  999.0,    0.1,    0.0,    0.3,    0.2,    0.3,    0.1,   -0.1
1998/12/21 03:20,  999.0,  999.0,  999.0,  999.0,  999.0,  999.0,   11.0,   11.1,   12.0,   13.3,   14.0,   14.4,   14.1,   14.4,   15.5,   16.1,   15.3,   14.7,   14.9,   15.2,   15.2,   15.0,  999.0,  999.0,    0.2,    0.4,   -0.1,   -0.1,  999.0,  999.0,   -0.4,    0.2,    0.1,   -0.2,    0.4,    0.2,   -0.1,    0.0,    0.1,    0.1,    0.5,  999.0,  999.0,  999.0,  999.0,   -0.2,   -0.1,   -0.0,   -0.2,    0.1,   -0.0,  999.0
1998/12/21 03:30,  999.0,  999.0,  999.0,  999.0,  999.0,  999.0,    9.9,    9.6,   11.3,   13.9,   14.3,   14.2,   16.0,   16.4,   16.8,   16.7,   16.1,   14.7,   15.0,   15.1,  999.0,  999.0,  999.0,  999.0,  999.0,    0.2,   -0.0,    0.1,  999.0,  999.0,    0.1,    0.2,   -0.3,   -0.1,  999.0,   -0.5,   -0.2,   -0.2,   -0.1,  999.0,  999.0,  999.0,  999.0,  999.0,  999.0,    0.1,  999.0,   -0.0,    0.3,   -0.3,    0.1,   -0.2
1998/12/21 03:40,  999.0,  999.0,  999.0,  999.0,  999.0,  999.0,  999.0,   11.3,   13.5,   12.5,   12.8,   12.0,   11.1,   13.9,   13.2,   14.3,   15.7,   16.6,   17.2,   17.2,  999.0,  999.0,  999.0,  999.0,    0.1,    0.0,   -0.0,   -0.4,  999.0,  999.0,   -0.1,    0.1,  999.0,   -0.2,   -0.0,    0.1,    0.4,   -0.1,    0.0,    0.3,   -0.0,  999.0,  999.0,  999.0,  999.0,   -0.1,   -0.1,    0.6,   -0.2,  999.0,   -0.1,  999.0
1998/12/21 03:50,  999.0,  999.0,  999.0,  999.0,  999.0,  999.0,  999.0,   14.2,   14.3,   14.7,   14.2,   15.2,   15.3,   15.0,   14.6,   15.1,   15.5,   17.1,   17.4,  999.0,   10.6,  999.0,  999.0,  999.0,   -0.1,    0.3,    0.3,  999.0,  999.0,  999.0,   -0.3,   -0.6,  999.0,   -0.1,  999.0,    0.3,    0.1,    0.1,    0.3,  999.0,  999.0,   -0.3,  999.0,  999.0,  999.0,    0.1,  999.0,    0.2,  999.0,   -0.0,   -0.0,    0.3
1998/12/21 04:00,  999.0,  999.0,  999.0,  999.0,  999.0,  999.0,   13.6,   12.4,   13.4,   13.9,   14.9,   14.4,   13.0,   14.3,   14.5,   14.3,   15.2,   14.7,   16.5,  999.0,  999.0,  999.0,    0.2,   -0.1,    0.0,    0.1,    0.5,  999.0,  999.0,  999.0,    0.1,    0.3,    0.4,    0.2,    0.2,    0.0,   -0.3,   -0.2,   -0.0,    0.0,   -0.2,  999.0,   -0.2,  999.0,  999.0,    0.4,   -0.2,   -0.1,    0.1,   -0.1,   -0.2,    0.2
1998/12/21 04:10,  999.0,  999.0,  999.0,  999.0,  999.0,  999.0,  999.0,   12.7,   13.5,   13.9,   14.4,   15.3,   15.1,   12.4,   13.4,   13.6,   14.0,   15.4,  999.0,  999.0,  999.0,  999.0,    0.6,    0.3,   -0.0,   -0.4,   -0.2,    0.0,  999.0,  999.0,    0.3,   -0.1,   -0.3,   -0.4,    0.2,   -0.0,    0.1,   -0.1,    0.1,   -0.1,    0.1,  999.0,  999.0,  999.0,  999.0,    0.4,    0.0,    0.4,   -0.2,   -0.2,   -0.1,  999.0
1998/12/21 04:20,  999.0,  999.0,  999.0,  999.0,  999.0,  999.0,   12.9,   13.4,   13.6,   13.7,   13.9,   12.9,   12.9,   10.4,   10.1,   13.7,  999.0,   12.6,   14.2,  999.0,  999.0,  999.0,    0.8,   -0.2,   -0.3,   -0.7,   -0.5,   -0.2,  999.0,  999.0,   -0.5,   -0.0,    0.3,    0.2,    0.1,    0.1,    1.0,    0.3,   -0.0,   -0.3,   -0.2,  999.0,  999.0,   -0.5,  999.0,    0.2,  999.0,    0.1,    0.4,   -0.2,    0.2,   -0.2
1998/12/21 04:30,  999.0,  999.0,  999.0,  999.0,  999.0,  999.0,  999.0,  999.0,  999.0,   14.1,   12.4,   15.3,   16.3,   15.5,   14.4,   14.2,   13.9,   14.5,   13.3,   13.5,   14.8,   14.5,   14.0,   13.9,    9.9,    4.7,    5.2,   11.0,    7.0,   10.0,    7.4,    0.2,    0.3,  999.0,   -0.0,    0.2,    0.5,    0.2,   -0.2,    0.2,    0.2,    0.0,  999.0,  999.0,  999.0,    0.3,    0.8,    0.6,    0.5,    0.3,   -0.1,   -0.6
1998/12/21 04:40,  999.0,  999.0,  999.0,  999.0,  999.0,  999.0,  999.0,   13.5,   14.3,   13.5,   15.0,   14.1,   14.6,   14.8,   15.1,   14.5,   14.4,   15.1,  999.0,  999.0,  999.0,  999.0,  999.0,    5.9,    5.9,  999.0,  999.0,  999.0,    0.5,   -0.3,  999.0,   -0.4,  999.0,  999.0,   -0.1,    0.1,    0.3,    0.2,    0.1,    0.1,    0.1,    0.5,  999.0,  999.0,  999.0,    0.0,   -0.3,    0.4,    0.4,   -0.0,    0.2,   -0.3
1998/12/21 04:50,  999.0,  999.0,  999.0,  999.0,  999.0,  999.0,  999.0,   13.0,   13.4,   13.8,   13.5,   14.0,   14.4,   14.6,   14.2,  999.0,  999.0,  999.0,  999.0,  999.0,  999.0,  999.0,  999.0,  999.0,  999.0,  999.0,    0.2,   -0.3,  999.0,   -0.2,   -0.5,   -0.3,  999.0,   -0.1,    0.2,   -0.1,   -0.4,   -0.0,   -0.1,   -0.2,   -0.1,   -0.4,  999.0,    0.5,  999.0,  999.0,    0.1,    0.2,    0.0,   -0.1,    0.3,    0.2
1998/12/21 05:00,  999.0,  999.0,  999.0,  999.0,  999.0,   10.1,  999.0,  999.0,  999.0,   14.6,   12.2,   12.9,   13.3,   13.8,   14.4,   13.8,   14.4,   14.7,   14.2,   13.1,   13.8,   15.4,   15.6,   15.3,   14.1,   13.8,   13.9,  999.0,  999.0,  999.0,  999.0,    0.2,    0.4,  999.0,  999.0,  999.0,  999.0,   -0.3,   -0.3,    0.1,   -0.2,  999.0,  999.0,  999.0,  999.0,  999.0,    0.1,   -0.2,   -0.3,    0.4,    0.2,  999.0
1998/12/21 05:10,  999.0,  999.0,  999.0,  999.0,  999.0,  999.0,   12.1,   13.6,   13.9,   12.1,   13.1,   13.0,   12.6,   12.9,   12.1,   11.4,   12.6,  999.0,  999.0,  999.0,  999.0,  999.0,  999.0,  999.0,  999.0,  999.0,  999.0,  999.0,  999.0,  999.0,  999.0,  999.0,   -0.1,  999.0,   -0.7,  999.0,   -0.3,    0.0,    0.6,    0.3,    0.6,   -0.2,  999.0,  999.0,  999.0,    0.3,  999.0,  999.0,    0.1,    0.2,    0.0,  999.0
1998/12/21 05:20,  999.0,  999.0,  999.0,  999.0,  999.0,   10.0,   10.4,    9.8,    9.6,   10.6,   11.5,   11.5,   11.3,   11.7,   11.1,   11.1,   12.4,   14.6,   16.5,   18.8,   18.2,  999.0,   16.5,   16.6,   15.9,  999.0,  999.0,  999.0,  999.0,  999.0,  999.0,  999.0,  999.0,  999.0,  999.0,   -0.0,  999.0,   -0.2,   -0.1,   -0.5,  999.0,  999.0,  999.0,  999.0,  999.0,  999.0,  999.0,   -0.0,  999.0,    0.7,    0.7,   -0.0
1998/12/21 05:30,  999.0,  999.0,  999.0,  999.0,  999.0,    9.5,    8.2,    8.1,   10.2,   12.2,   13.1,   12.6,   11.7,   11.3,   12.3,   12.8,   11.6,   12.9,   13.2,   14.1,   15.1,   17.4,   18.3,   17.4,   17.0,   16.6,   16.5,   18.2,   15.6,   15.5,   15.0,   14.7,   14.4,   14.2,   12.3,   12.4,    9.3,    4.1,    0.8,    0.6,  999.0,  999.0,  999.0,  999.0,  999.0,  999.0,  999.0,  999.0,    0.2,    0.0,   -0.0,   -0.2
1998/12/21 05:40,  999.0,  999.0,  999.0,  999.0,  999.0,   10.2,   13.7,   14.4,   14.9,   16.2,   18.5,   19.1,   18.9,   19.6,   19.8,   20.2,   20.3,   20.7,   20.6,   20.9,   21.1,   21.4,   21.8,   22.0,   21.9,   21.8,   21.4,   21.0,   20.2,   18.9,   17.8,   16.7,   14.6,   13.2,   12.3,   11.5,   11.1,    5.9,    3.2,    1.0,    0.4,    0.1,    0.3,  999.0,   -0.0,   -0.1,   -0.2,    0.0,    0.1,   -0.1,    0.2,   -0.0
1998/12/21 05:50,  999.0,  999.0,  999.0,  999.0,  999.0,   13.9,  999.0,   13.9,   15.9,   16.2,   15.8,   16.4,   18.1,   18.7,   19.0,   19.3,   19.9,   20.5,   21.4,   21.9,   21.8,   21.7,   21.1,   20.7,   20.5,   20.5,   21.0,   21.6,   22.3,   22.4,   21.8,   20.6,   19.0,   18.4,   15.4,   14.0,   11.9,    9.9,    7.9,    7.5,    7.0,    8.1,    6.1,    5.9,    6.6,    5.1,    4.8,    4.6,    3.8,    3.1,    3.0,    3.0
1998/12/21 06:00,  999.0,  999.0,  999.0,  999.0,  999.0,  999.0,   14.9,   14.1,   14.5,   15.3,   15.9,   16.8,   17.7,   18.6,   19.5,   20.3,   21.1,   21.4,   21.3,   21.2,   21.9,   22.4,   22.7,   21.8,   21.3,   21.1,   21.1,   21.2,   21.6,   21.1,   21.4,   19.5,   18.5,   17.9,   17.6,   16.5,   15.4,   12.1,   10.0,    9.6,    8.1,    5.6,    4.9,    4.7,    4.5,    4.1,    4.0,    3.9,    3.9,    3.5,    3.7,    3.7
1998/12/21 06:10,  999.0,  999.0,  999.0,  999.0,  999.0,    0.1,   11.3,    8.5,   12.0,   10.1,   13.2,  999.0,  999.0,  999.0,  999.0,   17.4,   19.9,   19.3,   20.5,   19.8,   20.2,   20.9,   20.7,   20.7,   20.1,   19.0,   21.4,   22.0,   22.5,   18.9,   16.6,   14.9,   11.9,   13.0,    9.1,    8.7,    6.7,   10.0,    4.9,  999.0,    6.9,    6.4,    5.2,    5.2,    4.9,  999.0,  999.0,    2.1,  999.0,  999.0,  999.0,  999.0
1998/12/21 06:20,  999.0,  999.0,  999.0,  999.0,  999.0,  999.0,  999.0,   12.9,   13.4,   14.2,   14.6,   15.5,   16.5,   17.2,   17.8,   18.4,   18.7,   18.8,   19.0,   18.8,   18.9,  999.0,  999.0,  999.0,  999.0,  999.0,  999.0,  999.0,  999.0,  999.0,  999.0,    3.3,  999.0,  999.0,  999.0,  999.0,    6.5,    6.3,    6.4,    7.3,    6.1,  999.0,  999.0,    0.3,  999.0,  999.0,   -0.2,    0.3,    0.3,   -0.1,   -0.2,   -0.1
1998/12/21 06:30,  999.0,  999.0,  999.0,  999.0,  999.0,   11.3,  999.0,   12.9,   13.6,   14.4,   15.3,   16.2,   16.9,   17.5,   18.3,   19.0,   19.8,   19.9,   19.9,   19.6,   19.5,   20.2,   20.8,   21.0,   19.9,   18.2,   16.7,   17.9,   18.2,   18.5,   18.7,   18.2,   17.9,   18.7,   17.8,   15.9,   15.7,   11.9,   11.2,   11.4,   12.0,   11.1,   10.0,    8.5,  999.0,    6.0,    2.9,    0.3,    0.5,    0.0,  999.0,   -0.6
1998/12/21 06:40,  999.0,  999.0,  999.0,  999.0,  999.0,   10.2,  999.0,  999.0,   14.1,   15.1,   15.3,   16.0,   16.1,   16.6,   17.9,   19.1,   19.4,   19.7,   19.6,   19.2,   19.0,   19.2,   19.9,   20.1,   20.7,   18.7,   17.0,   17.4,   18.3,   16.7,   18.9,   20.3,   19.1,   20.6,   20.7,   18.3,   16.6,   14.8,   14.8,   13.7,   12.8,   12.6,   11.9,   10.3,    9.4,    8.1,    5.9,    3.1,    2.0,    1.2,   -0.3,    0.4
1998/12/21 06:50,  999.0,  999.0,  999.0,  999.0,  999.0,    8.7,  999.0,   10.9,   12.8,   13.9,   14.5,   15.3,   16.6,   17.2,   17.6,   18.1,   18.5,   18.3,   18.1,   17.8,   17.5,   17.1,   17.5,   19.1,   20.2,   19.5,   18.1,   19.1,   19.2,   20.2,   19.9,   20.1,   19.5,   20.3,   21.1,   18.2,   13.2,   10.3,   10.9,   12.4,  999.0,  999.0,  999.0,  999.0,    7.6,    7.9,    7.2,    4.9,    3.0,    1.2,    0.9,   -0.2
1998/12/21 07:00,  999.0,  999.0,  999.0,  999.0,  999.0,   10.0,  999.0,  999.0,   13.2,   13.4,   15.8,    9.6,   11.6,   12.5,   14.5,   17.2,   16.0,   16.6,   16.7,   15.9,   16.6,   18.6,   18.0,   18.8,   18.2,   18.6,   18.5,   17.8,   17.1,   18.5,   19.9,   20.1,   20.1,   20.1,   19.3,   17.8,   16.7,   17.3,   14.6,   14.4,  999.0,  999.0,  999.0,  999.0,  999.0,  999.0,    8.4,    6.9,    6.4,    5.3,    5.5,    6.2
1998/12/21 07:10,  999.0,  999.0,  999.0,  999.0,  999.0,  999.0,   11.7,  999.0,   12.5,  999.0,  999.0,   15.8,   15.7,   15.3,   15.8,   16.4,   16.4,   17.3,   18.3,   18.3,  999.0,  999.0,   11.1,   11.2,   12.3,    9.9,   10.3,   10.7,  999.0,   10.2,   12.2,   13.7,   14.5,   18.9,   14.3,   14.3,   12.6,  999.0,  999.0,  999.0,  999.0,  999.0,  999.0,  999.0,  999.0,  999.0,  999.0,  999.0,    5.2,    3.0,    1.9,  999.0
1998/12/21 07:20,  999.0,  999.0,  999.0,  999.0,  999.0,  999.0,   11.3,   11.3,   12.8,  999.0,   15.8,   16.8,   16.9,   16.7,   17.2,   16.5,   16.9,   18.6,   18.9,   20.3,  999.0,  999.0,  999.0,  999.0,    2.6,    1.2,    0.6,    1.1,  999.0,    1.5,    2.4,  999.0,    3.6,    4.0,    2.1,    2.6,    3.6,  999.0,  999.0,  999.0,   14.8,   13.5,   13.4,   13.1,   12.4,   11.5,   11.4,   11.7,  999.0,    5.7,    3.3,  999.0
1998/12/21 07:30,  999.0,  999.0,  999.0,  999.0,  999.0,  999.0,  999.0,   12.8,   13.8,   20.8,  999.0,  999.0,  999.0,  999.0,  999.0,  999.0,  999.0,  999.0,  999.0,  999.0,  999.0,    7.8,  999.0,  999.0,    9.7,    6.5,    5.0,    6.5,    6.5,    7.6,    8.6,    7.7,    8.7,    7.5,    7.2,    5.4,    7.5,  999.0,  999.0,  999.0,   14.7,   12.9,   12.2,   12.2,   12.6,   12.6,   12.5,   12.2,   11.7,   10.1,  999.0,  999.0
1998/12/21 07:40,  999.0,  999.0,  999.0,  999.0,  999.0,  999.0,  999.0,  999.0,   17.7,  999.0,  999.0,   17.8,   16.4,   16.1,   15.7,   18.0,  999.0,  999.0,  999.0,  999.0,  999.0,  999.0,   10.9,   14.5,   11.8,   12.1,   12.5,   15.9,   17.9,   16.9,   17.3,   17.9,   19.5,   13.5,   17.6,   17.4,   12.8,   11.6,  999.0,   13.7,   13.2,   11.9,   12.4,   12.5,   12.0,   12.8,   13.2,   12.5,   12.1,    8.3,    4.0,  999.0
1998/12/21 07:50,  999.0,  999.0,  999.0,  999.0,  999.0,  999.0,   11.7,   12.1,   17.8,   16.6,   14.3,  999.0,   15.3,   16.9,   17.3,  999.0,  999.0,  999.0,  999.0,  999.0,  999.0,    2.2,    1.9,    0.7,    1.3,    0.4,    0.1,  999.0,  999.0,  999.0,    0.1,    0.1,  999.0,   -0.2,  999.0,   -0.2,    0.9,    0.1,    0.0,  999.0,  999.0,  999.0,  999.0,  999.0,  999.0,  999.0,  999.0,  999.0,  999.0,    0.8,    0.1,    0.3
1998/12/21 08:00,  999.0,  999.0,  999.0,  999.0,  999.0,  999.0,    9.7,   10.9,   12.2,   13.6,   14.2,  999.0,  999.0,  999.0,  999.0,  999.0,  999.0,  999.0,  999.0,  999.0,  999.0,   -0.8,   -0.5,   -0.5,   -0.5,    0.2,   -0.1,   -0.1,  999.0,  999.0,   -0.1,    0.3,  999.0,    0.3,  999.0,    0.2,    0.3,   -0.0,    0.2,  999.0,  999.0,  999.0,  999.0,  999.0,  999.0,    0.5,  999.0,  999.0,    0.4,    0.3,    0.4,  999.0
1998/12/21 08:10,  999.0,  999.0,  999.0,  999.0,  999.0,  999.0,    9.5,   10.0,   12.2,   12.9,   13.0,  999.0,  999.0,  999.0,  999.0,  999.0,  999.0,  999.0,  999.0,  999.0,  999.0,   -1.3,   -1.8,   -0.9,    0.0,    0.1,   -0.1,    0.2,  999.0,  999.0,   -1.3,  999.0,    0.1,   -0.2,    0.6,   -0.1,    0.2,    0.1,   -0.0,  999.0,  999.0,  999.0,  999.0,  999.0,  999.0,    0.1,  999.0,    0.3,   -0.1,   -0.4,   -0.3,  999.0
1998/12/21 08:20,  999.0,  999.0,  999.0,  999.0,  999.0,  999.0,    9.8,   10.0,   12.6,   13.4,  999.0,  999.0,  999.0,  999.0,  999.0,  999.0,  999.0,  999.0,  999.0,  999.0,  999.0,   -0.4,   -0.7,   -0.0,    0.4,    0.1,   -0.1,    0.1,  999.0,  999.0,    0.1,    0.2,    0.1,   -0.1,   -0.2,   -0.7,   -0.6,    0.5,   -0.1,    0.1,  999.0,  999.0,  999.0,  999.0,  999.0,  999.0,  999.0,   -0.1,    0.2,    0.3,   -0.2,    0.1
1998/12/21 08:30,  999.0,  999.0,  999.0,  999.0,  999.0,  999.0,   10.8,   11.5,   12.3,   13.9,  999.0,  999.0,  999.0,  999.0,  999.0,  999.0,  999.0,  999.0,  999.0,  999.0,  999.0,   -0.7,   -0.1,    0.1,   -0.0,   -0.0,   -0.3,   -0.1,  999.0,  999.0,   -0.3,   -0.2,   -0.0,  999.0,  999.0,    1.6,   -0.2,    0.7,   -0.2,    0.4,  999.0,  999.0,  999.0,  999.0,  999.0,    0.1,    0.2,    0.5,    0.2,  999.0,   -0.3,  999.0
1998/12/21 08:40,  999.0,  999.0,  999.0,  999.0,  999.0,  999.0,   10.6,   11.0,   12.3,   15.0,  999.0,  999.0,  999.0,  999.0,  999.0,  999.0,  999.0,  999.0,  999.0,  999.0,  999.0,  999.0,  999.0,   -1.3,   -1.0,   -1.1,   -0.2,    0.1,  999.0,  999.0,   -0.7,   -0.5,   -0.9,  999.0,   -0.7,    0.2,   -0.0,  999.0,  999.0,  999.0,  999.0,  999.0,  999.0,  999.0,  999.0,  999.0,  999.0,   -0.1,    0.5,  999.0,    0.1,  999.0
1998/12/21 08:50,  999.0,  999.0,  999.0,  999.0,  999.0,  999.0,   10.7,   11.5,   12.6,   14.5,  999.0,  999.0,  999.0,  999.0,  999.0,  999.0,  999.0,  999.0,  999.0,  999.0,  999.0,  999.0,  999.0,   -0.2,    0.1,   -0.1,    0.1,  999.0,  999.0,  999.0,   -0.5,   -0.1,    0.3,  999.0,  999.0,  999.0,  999.0,   -0.1,    0.0,    0.0,  999.0,  999.0,  999.0,  999.0,  999.0,  999.0,   -0.2,    0.3,   -0.2,   -0.1,    0.2,  999.0
1998/12/21 09:00,  999.0,  999.0,  999.0,  999.0,  999.0,  999.0,   11.1,   11.4,   11.9,   13.7,   14.3,   15.3,   15.7,  999.0,  999.0,  999.0,  999.0,  999.0,  999.0,  999.0,  999.0,  999.0,  999.0,    1.0,  999.0,   -0.3,    0.4,  999.0,  999.0,  999.0,  999.0,    0.3,   -0.4,    0.3,  999.0,   -1.1,   -0.6,    0.3,  999.0,   -0.2,  999.0,  999.0,  999.0,  999.0,  999.0,  999.0,    0.0,    0.2,    0.2,   -0.2,   -0.2,  999.0
1998/12/21 09:10,  999.0,  999.0,  999.0,  999.0,  999.0,  999.0,   10.6,   11.7,   12.9,   14.4,   13.9,   15.9,   16.9,   18.0,  999.0,  999.0,  999.0,  999.0,  999.0,  999.0,  999.0,  999.0,  999.0,   -0.1,    0.0,   -0.1,    0.0,    0.1,  999.0,  999.0,  999.0,  999.0,   -0.1,  999.0,   -0.1,  999.0,  999.0,    0.2,  999.0,    0.1,  999.0,  999.0,  999.0,  999.0,  999.0,  999.0,   -0.1,    0.2,   -0.0,  999.0,   -0.4,  999.0
1998/12/21 09:20,  999.0,  999.0,  999.0,  999.0,  999.0,  999.0,    9.5,   10.2,   12.0,   13.3,   13.6,   15.8,   17.3,   17.6,   17.8,   18.1,   17.9,  999.0,  999.0,  999.0,  999.0,  999.0,  999.0,    0.0,    0.9,    0.1,    0.1,   -0.2,  999.0,  999.0,  999.0,   -0.3,   -0.3,   -0.2,  999.0,  999.0,    0.0,   -0.2,   -0.0,   -0.3,  999.0,  999.0,  999.0,  999.0,  999.0,  999.0,    0.8,    0.1,   -0.1,   -0.0,   -0.3,  999.0
1998/12/21 09:30,  999.0,  999.0,  999.0,  999.0,  999.0,  999.0,    9.2,   10.3,   10.9,   11.5,   12.4,   14.2,   15.9,   17.5,   16.8,   17.9,  999.0,  999.0,  999.0,  999.0,  999.0,  999.0,  999.0,   -0.5,  999.0,   -0.3,   -0.1,  999.0,  999.0,  999.0,   -0.6,   -0.0,    0.0,    0.3,    0.2,  999.0,    0.2,  999.0,    0.1,  999.0,  999.0,  999.0,  999.0,  999.0,  999.0,  999.0,   -0.0,   -0.0,   -0.1,    0.6,  999.0,  999.0
1998/12/21 09:40,  999.0,  999.0,  999.0,  999.0,  999.0,  999.0,    9.8,   10.3,   11.5,   11.9,   13.5,   15.6,   14.8,  999.0,   15.5,   17.2,  999.0,  999.0,  999.0,  999.0,  999.0,  999.0,  999.0,   -0.2,    1.5,    0.4,   -0.2,   -0.2,  999.0,   -0.0,    0.2,  999.0,    0.3,    0.3,    0.2,  999.0,   -0.5,    0.0,   -0.2,    0.3,  999.0,  999.0,  999.0,  999.0,  999.0,  999.0,   -0.1,    0.4,   -0.2,  999.0,   -0.1,  999.0
1998/12/21 09:50,  999.0,  999.0,  999.0,  999.0,  999.0,  999.0,    9.5,   10.5,   12.6,   13.5,   15.7,   14.9,  999.0,  999.0,   15.5,  999.0,  999.0,  999.0,  999.0,  999.0,  999.0,  999.0,  999.0,   -0.2,   -0.1,    0.1,   -0.1,    0.1,  999.0,  999.0,    0.0,    0.5,    0.7,  999.0,  999.0,   -0.3,    0.4,  999.0,  999.0,  999.0,  999.0,  999.0,  999.0,  999.0,  999.0,  999.0,   -0.0,   -0.2,   -0.6,   -0.1,    0.5,  999.0
1998/12/21 10:00,  999.0,  999.0,  999.0,  999.0,  999.0,    9.4,   10.5,   11.0,   12.0,   12.4,   13.5,   14.2,   14.8,   15.0,  999.0,  999.0,  999.0,  999.0,  999.0,  999.0,  999.0,   -0.7,   -0.5,   -0.0,   -0.2,   -0.8,   -0.4,   -0.1,  999.0,    0.8,    0.3,    0.3,    0.5,   -0.3,   -0.2,    0.1,   -0.2,  999.0,    0.2,   -0.1,    0.2,  999.0,  999.0,  999.0,  999.0,   -0.1,    0.1,   -0.1,   -0.0,  999.0,   -0.2,  999.0
1998/12/21 10:10,  999.0,  999.0,  999.0,  999.0,  999.0,    9.1,   11.5,   11.9,   11.7,   12.7,   14.3,   15.6,   16.4,   14.4,   15.2,  999.0,  999.0,  999.0,  999.0,  999.0,  999.0,   -1.6,   -0.2,  999.0,   -0.3,   -0.8,   -0.5,  999.0,   -0.2,    0.3,   -0.0,   -0.1,   -0.0,   -0.2,   -0.0,   -0.0,   -0.3,   -0.0,    0.1,    0.3,   -0.0,  999.0,  999.0,  999.0,  999.0,    0.1,   -0.2,    0.1,   -0.4,   -0.9,   -0.4,  999.0
1998/12/21 10:20,  999.0,  999.0,  999.0,  999.0,  999.0,  999.0,    8.4,    8.7,    8.5,   12.0,   11.9,   14.4,   16.6,   16.3,   16.5,  999.0,  999.0,  999.0,  999.0,  999.0,  999.0,  999.0,  999.0,  999.0,   -1.0,   -1.6,   -0.3,    0.0,   -0.6,  999.0,    0.0,    0.3,    0.0,   -0.5,   -0.4,    0.0,   -0.2,   -0.1,   -0.1,   -0.1,  999.0,  999.0,  999.0,  999.0,  999.0,  999.0,    0.1,    0.2,    0.5,  999.0,  999.0,  999.0
1998/12/21 10:30,  999.0,  999.0,  999.0,  999.0,  999.0,  999.0,   10.7,   10.4,   12.4,   13.4,   16.0,   16.5,   15.6,   14.3,  999.0,  999.0,  999.0,  999.0,  999.0,  999.0,  999.0,   -0.5,   -0.4,   -0.3,    0.3,   -0.0,   -0.0,   -0.3,  999.0,   -0.3,   -0.2,    0.4,   -0.0,    0.1,    0.0,    0.3,    0.1,    0.2,   -0.0,    0.2,  999.0,  999.0,    0.2,  999.0,  999.0,   -0.3,   -0.0,  999.0,    0.0,   -0.0,    0.3,  999.0
1998/12/21 10:40,  999.0,  999.0,  999.0,  999.0,  999.0,    9.3,    9.1,   10.9,   12.4,   14.8,   14.3,   13.5,   13.8,   13.3,   12.9,  999.0,  999.0,  999.0,  999.0,  999.0,  999.0,   -0.6,   -0.5,   -0.3,   -0.3,   -0.0,    0.2,  999.0,  999.0,  999.0,    0.5,   -0.1,   -0.0,   -0.1,   -0.1,   -0.1,   -0.2,   -0.5,    0.2,  999.0,  999.0,  999.0,  999.0,  999.0,  999.0,   -0.7,   -0.1,   -0.2,    0.0,    0.3,    0.1,  999.0
1998/12/21 10:50,  999.0,  999.0,  999.0,  999.0,  999.0,    7.7,    9.9,   10.6,   10.5,   12.0,   13.1,   12.6,   14.6,   14.5,  999.0,  999.0,  999.0,  999.0,  999.0,  999.0,  999.0,   -0.3,    0.2,   -0.3,   -0.3,   -0.4,    0.0,    0.1,  999.0,  999.0,    0.4,  999.0,    0.7,    0.1,   -0.0,  999.0,    0.4,    0.5,    0.0,    0.1,    0.2,  999.0,  999.0,  999.0,  999.0,   -0.1,    0.6,    0.0,    0.0,   -0.2,  999.0,  999.0
1998/12/21 11:00,  999.0,  999.0,  999.0,  999.0,  999.0,    7.7,   10.0,   10.7,   12.3,   13.5,   14.2,   14.1,   14.0,   13.8,   15.4,   17.4,   16.9,   16.0,  999.0,  999.0,  999.0,    0.0,    0.5,    0.3,    0.1,    0.5,    0.4,    0.6,    0.3,   -0.1,    0.5,    0.3,   -0.0,  999.0,    0.0,    0.2,    0.0,   -0.1,    0.3,   -0.1,  999.0,  999.0,  999.0,  999.0,    0.2,    0.0,    0.0,   -0.0,   -0.8,  999.0,   -0.0,   -0.3
1998/12/21 11:10,  999.0,  999.0,  999.0,  999.0,  999.0,    7.0,   10.6,   11.3,   13.0,   12.4,   12.0,   12.7,   14.0,   14.0,   16.0,   22.8,   19.1,  999.0,  999.0,  999.0,  999.0,   -0.8,   -0.5,    0.4,   -0.2,   -0.2,   -0.3,   -0.1,  999.0,   -0.5,    0.1,    0.1,   -0.2,    0.1,   -0.2,    0.2,    0.5,   -0.4,    0.0,   -0.5,    0.2,    0.6,  999.0,  999.0,  999.0,   -0.1,    0.3,    0.2,   -0.0,    0.0,    0.2,  999.0
1998/12/21 11:20,  999.0,  999.0,  999.0,  999.0,  999.0,    7.2,    7.6,    9.7,   12.1,   11.7,   11.5,   12.5,   12.9,   13.8,   14.5,  999.0,  999.0,  999.0,  999.0,  999.0,    0.2,   -0.1,    0.0,   -0.2,    0.1,   -0.1,   -0.2,    0.0,    0.3,   -0.0,   -0.0,   -0.2,   -0.0,   -0.1,    0.2,   -0.2,   -0.4,    0.0,    0.0,    0.5,    0.6,  999.0,  999.0,  999.0,  999.0,    0.3,   -0.5,    0.2,   -0.1,    0.1,   -0.2,  999.0
1998/12/21 11:30,  999.0,  999.0,  999.0,  999.0,  999.0,    7.6,    8.7,    9.3,   10.9,   12.4,   14.3,   13.9,   14.6,   13.5,   13.9,   14.2,   16.6,  999.0,  999.0,  999.0,    0.7,  999.0,   -0.3,   -0.3,    0.3,   -0.1,    0.1,    0.2,    0.2,   -0.1,    0.0,  999.0,  999.0,   -0.1,    0.2,    0.3,   -0.1,   -0.2,   -0.0,   -0.1,  999.0,  999.0,  999.0,  999.0,  999.0,   -0.1,  999.0,   -0.1,   -0.1,   -0.6,  999.0,  999.0
1998/12/21 11:40,  999.0,  999.0,  999.0,  999.0,  999.0,   10.4,   11.0,   12.5,   13.0,   15.0,   14.8,   13.6,   14.6,   15.2,   16.3,  999.0,  999.0,   19.0,  999.0,  999.0,  999.0,   -0.7,   -0.8,  999.0,    0.2,   -0.1,   -0.2,    0.1,  999.0,    0.2,   -0.1,    0.2,    0.1,    0.0,    0.0,    0.3,   -0.2,   -0.2,   -0.4,    0.0,    0.2,  999.0,  999.0,  999.0,  999.0,    0.4,  999.0,    0.3,  999.0,    0.1,  999.0,  999.0
1998/12/21 11:50,  999.0,  999.0,  999.0,  999.0,  999.0,  999.0,    9.0,   10.2,   10.3,   11.6,   12.5,   14.7,   15.8,   15.9,  999.0,  999.0,  999.0,  999.0,  999.0,  999.0,  999.0,  999.0,    0.1,   -0.2,    0.2,    0.2,    0.3,   -0.1,   -0.1,   -0.0,    0.1,    0.1,   -0.4,   -0.1,  999.0,    0.0,  999.0,   -0.1,   -0.0,    0.1,    0.2,  999.0,  999.0,  999.0,  999.0,   -0.2,   -0.0,   -0.2,    0.3,    0.2,    0.2,  999.0
1998/12/21 12:00,  999.0,  999.0,  999.0,  999.0,  999.0,  999.0,   11.1,   10.1,   13.0,   10.5,   10.6,   12.5,   13.0,   14.7,   14.7,   12.9,  999.0,  999.0,  999.0,  999.0,  999.0,    0.3,    0.1,   -0.0,    0.1,    0.1,    0.2,   -0.2,   -0.2,    0.1,   -0.5,   -0.5,   -0.3,  999.0,   -0.2,    0.1,    0.1,    0.2,    0.1,    0.3,   -0.3,   -0.0,  999.0,  999.0,  999.0,   -0.1,   -0.1,   -0.6,   -0.0,   -0.4,    0.3,    0.3
1998/12/21 12:10,  999.0,  999.0,  999.0,  999.0,  999.0,    9.7,   10.9,   11.4,   10.8,   11.6,   12.6,   13.9,  999.0,  999.0,  999.0,  999.0,  999.0,  999.0,  999.0,  999.0,   -0.1,   -0.0,   -0.1,    0.1,   -0.1,   -0.3,   -0.1,   -0.2,    0.1,   -0.0,    0.4,   -0.4,   -0.2,   -0.0,    0.1,   -0.3,    0.1,   -0.3,   -0.3,   -0.1,    0.0,  999.0,  999.0,  999.0,  999.0,    0.2,    0.2,    0.3,    0.3,    0.2,    0.2,  999.0
1998/12/21 12:20,  999.0,  999.0,  999.0,  999.0,  999.0,    6.4,    9.2,   10.1,   12.3,   12.9,   14.5,   14.2,   15.2,   16.4,   17.7,  999.0,  999.0,  999.0,  999.0,  999.0,   -0.3,   -0.4,   -0.2,    0.0,    0.1,    0.7,   -0.1,    0.5,    0.2,    0.0,   -0.2,    0.2,    0.2,    0.3,  999.0,  999.0,    0.0,   -0.3,   -0.1,    0.0,   -0.4,   -0.1,  999.0,  999.0,  999.0,    0.1,   -0.1,   -0.3,   -0.1,    0.0,    0.1,  999.0
1998/12/21 12:30,  999.0,  999.0,  999.0,  999.0,  999.0,  999.0,    8.4,    9.1,    9.5,   10.7,   12.2,   12.6,    8.1,   11.1,   12.6,   12.3,   12.5,  999.0,  999.0,  999.0,    0.5,    0.3,    0.3,    0.7,    0.0,   -0.1,    0.3,    0.1,    0.3,   -0.2,    0.1,   -0.4,    0.3,    0.0,  999.0,   -0.1,  999.0,    0.0,   -0.0,   -0.2,   -0.3,    0.4,  999.0,  999.0,  999.0,   -0.2,  999.0,   -0.4,    0.0,   -0.1,   -0.3,  999.0
1998/12/21 12:40,  999.0,  999.0,  999.0,  999.0,  999.0,  999.0,   10.2,   12.5,   12.0,   14.2,   14.4,   14.3,   15.5,  999.0,   13.7,  999.0,  999.0,  999.0,  999.0,  999.0,   -0.9,   -0.5,   -0.1,   -0.0,    0.1,   -0.1,    0.5,   -0.1,   -0.2,    0.1,    0.0,   -0.7,    0.5,  999.0,    0.5,   -0.0,  999.0,    0.1,   -0.1,   -0.1,  999.0,  999.0,  999.0,  999.0,  999.0,   -0.1,  999.0,   -0.2,   -0.3,  999.0,   -0.3,   -0.5
1998/12/21 12:50,  999.0,  999.0,  999.0,  999.0,  999.0,    5.0,    8.5,   11.0,   12.4,   12.8,   13.5,   13.9,   14.2,   12.8,   13.7,   11.3,  999.0,  999.0,  999.0,  999.0,    1.1,    1.0,   -0.0,    0.3,    0.4,  999.0,    0.1,    0.1,   -0.6,   -0.2,   -0.0,    0.3,  999.0,    0.3,  999.0,  999.0,   -0.0,    0.1,    0.2,    0.2,   -0.2,  999.0,  999.0,  999.0,  999.0,   -0.1,   -0.0,    0.0,    0.3,  999.0,  999.0,  999.0
1998/12/21 13:00,  999.0,  999.0,  999.0,  999.0,  999.0,    7.6,    9.2,    9.1,   11.8,   12.5,   12.6,   13.6,   14.7,   14.7,   15.2,   15.2,   14.8,   15.2,  999.0,  999.0,  999.0,    1.0,   -0.3,    0.4,    0.2,   -0.0,   -0.0,   -0.0,    0.1,  999.0,   -0.5,    0.3,  999.0,  999.0,    0.2,  999.0,   -0.2,   -0.1,   -0.0,    0.1,    0.1,    0.3,  999.0,  999.0,   -0.3,  999.0,  999.0,   -0.4,   -0.1,    0.4,    0.4,  999.0
1998/12/21 13:10,  999.0,  999.0,  999.0,  999.0,  999.0,    7.8,    9.6,   10.7,   11.3,   12.7,   14.0,   14.0,   13.7,   14.2,   14.8,   15.1,   14.9,   17.0,  999.0,  999.0,  999.0,  999.0,  999.0,   -0.4,    0.0,   -0.2,    0.5,   -0.0,    0.2,    0.3,    0.3,    0.3,    0.5,   -0.1,    0.1,   -0.1,  999.0,   -0.0,    0.0,   -0.3,   -0.1,  999.0,  999.0,  999.0,  999.0,   -0.4,    0.0,   -0.1,   -0.3,   -0.5,   -0.1,  999.0
1998/12/21 13:20,  999.0,  999.0,  999.0,  999.0,  999.0,   10.0,    9.0,    9.3,   12.1,   12.5,   12.5,   12.6,   13.2,   14.7,   15.1,   15.9,   16.9,  999.0,  999.0,  999.0,    0.3,    0.8,  999.0,    0.2,    0.0,   -0.0,   -0.0,   -0.4,   -0.4,   -0.3,   -0.4,   -0.2,   -0.2,    0.2,  999.0,    0.1,    0.0,   -0.2,   -0.0,    0.2,  999.0,  999.0,    0.0,  999.0,    0.2,   -0.3,   -0.3,    0.6,   -0.2,  999.0,   -0.1,  999.0
1998/12/21 13:30,  999.0,  999.0,  999.0,  999.0,  999.0,    6.9,    8.5,   10.0,   10.8,   11.1,   11.3,   12.4,   13.5,   13.8,   11.5,   15.2,  999.0,  999.0,  999.0,  999.0,    2.9,    1.2,    0.7,   -0.1,   -0.1,    0.2,   -0.2,    0.0,    0.1,   -0.1,    0.1,    0.3,   -0.0,   -0.2,   -0.2,    0.0,   -0.3,    0.3,    0.3,    0.1,  999.0,  999.0,  999.0,  999.0,  999.0,    0.2,   -0.1,   -0.1,   -0.1,   -0.4,  999.0,  999.0
1998/12/21 13:40,  999.0,  999.0,  999.0,  999.0,  999.0,    6.9,    8.3,    9.7,   10.7,   11.4,   11.0,   13.6,   15.4,  999.0,  999.0,  999.0,  999.0,  999.0,  999.0,  999.0,  999.0,    0.4,  999.0,   -0.5,    0.2,    0.2,   -0.1,    0.2,   -0.1,   -0.1,    0.4,    0.3,    0.1,   -0.2,   -0.1,   -0.2,   -0.5,   -0.4,   -0.1,    0.3,  999.0,  999.0,  999.0,  999.0,  999.0,   -0.2,   -0.1,   -0.3,   -0.3,   -0.2,    0.1,  999.0
1998/12/21 13:50,  999.0,  999.0,  999.0,  999.0,  999.0,  999.0,   10.3,  999.0,    8.2,   11.2,    9.1,   12.2,   14.8,   15.1,   16.4,   16.2,  999.0,  999.0,  999.0,  999.0,  999.0,    0.9,    0.6,    1.1,    0.5,    0.2,    0.0,    0.1,   -0.1,    0.2,   -0.1,  999.0,    0.1,   -0.2,    0.2,    0.5,  999.0,    0.0,   -0.1,    0.0,  999.0,  999.0,  999.0,  999.0,  999.0,   -0.1,   -0.1,    0.0,   -0.1,   -0.0,  999.0,  999.0
1998/12/21 14:00,  999.0,  999.0,  999.0,  999.0,  999.0,    5.2,    8.0,    9.0,   10.2,   10.8,   10.8,   11.6,   12.8,   14.0,   15.5,   16.2,   16.7,   15.9,  999.0,  999.0,  999.0,  999.0,  999.0,    0.3,    0.4,    0.3,   -0.5,    0.2,    0.2,   -0.2,   -0.3,   -0.1,    0.0,    0.0,    0.0,    0.1,   -0.2,    0.1,    0.0,   -0.2,    0.1,    0.4,  999.0,  999.0,  999.0,   -0.2,   -0.5,    0.4,    0.2,    0.3,    0.0,  999.0
1998/12/21 14:10,  999.0,  999.0,  999.0,  999.0,  999.0,    4.4,    8.8,    8.8,    9.1,   11.7,   13.8,   14.1,   15.2,   15.6,   16.3,   17.0,   16.2,   15.4,   15.6,   15.5,  999.0,  999.0,  999.0,  999.0,    0.4,   -0.6,    0.5,    0.4,   -0.3,    0.4,   -0.2,   -0.3,   -0.6,  999.0,   -0.5,   -0.1,   -0.5,   -0.4,   -0.2,   -0.4,    0.4,  999.0,   -0.3,  999.0,  999.0,    0.1,    0.2,   -0.0,  999.0,   -0.6,   -0.2,  999.0
1998/12/21 14:20,  999.0,  999.0,  999.0,  999.0,  999.0,    8.5,    8.9,    9.6,   12.0,   13.0,   13.5,   13.8,   14.2,   14.9,   14.6,   15.1,   15.2,  999.0,  999.0,  999.0,  999.0,    0.2,    0.7,  999.0,   -0.1,    0.1,    0.1,  999.0,    0.3,   -0.2,    0.1,    0.4,    0.4,    0.5,    0.2,    0.4,    0.1,    0.3,    0.3,   -0.4,    0.3,  999.0,  999.0,  999.0,  999.0,  999.0,   -0.1,    0.2,   -0.1,    0.1,   -0.3,  999.0
1998/12/21 14:30,  999.0,  999.0,  999.0,  999.0,  999.0,   11.0,   12.4,   12.8,   10.9,   14.1,   14.4,   14.8,   15.9,   15.1,   15.1,   15.9,  999.0,  999.0,  999.0,  999.0,  999.0,  999.0,    0.6,  999.0,    0.0,    0.1,    0.0,    0.1,    0.3,    0.2,    0.3,    0.3,    0.2,   -0.2,    0.2,    0.0,    0.4,    0.2,    0.2,   -0.0,  999.0,  999.0,  999.0,    0.0,  999.0,    0.0,   -0.2,   -0.1,   -0.2,   -0.3,    0.4,  999.0
1998/12/21 14:40,  999.0,  999.0,  999.0,  999.0,  999.0,    9.4,   12.9,   12.4,   13.5,   14.6,   15.6,   13.9,   14.3,   14.9,  999.0,  999.0,  999.0,  999.0,  999.0,  999.0,  999.0,  999.0,  999.0,  999.0,    0.6,    0.2,   -0.1,    0.3,   -0.8,   -0.1,   -0.5,   -0.1,   -0.5,   -0.3,   -0.1,    0.3,    0.6,    0.1,    0.4,    0.8,  999.0,  999.0,  999.0,  999.0,  999.0,    0.1,   -0.2,   -0.7,   -0.2,    0.1,  999.0,  999.0
1998/12/21 14:50,  999.0,  999.0,  999.0,  999.0,  999.0,   10.8,    8.9,   10.1,   10.0,   10.7,   12.8,   12.3,   11.9,  999.0,  999.0,  999.0,  999.0,  999.0,  999.0,  999.0,  999.0,   -0.7,   -0.7,   -0.3,    0.1,    0.1,   -0.2,  999.0,   -0.1,   -0.1,    0.2,   -0.2,   -0.1,   -0.2,   -0.0,   -0.0,    0.0,   -0.1,  999.0,  999.0,    0.5,  999.0,  999.0,  999.0,  999.0,    0.5,  999.0,    0.1,    0.1,    0.1,   -0.3,  999.0
1998/12/21 15:00,  999.0,  999.0,  999.0,  999.0,  999.0,    8.6,   10.0,    8.9,   10.4,   11.1,   12.7,   14.0,   12.4,   13.4,   13.6,  999.0,  999.0,  999.0,  999.0,  999.0,   -3.7,   -2.7,    0.1,   -0.1,    0.5,    0.2,    0.2,    0.4,   -0.7,    0.1,   -0.3,   -0.1,    0.0,   -0.5,    0.1,   -0.2,    0.3,  999.0,  999.0,    0.0,  999.0,  999.0,  999.0,  999.0,  999.0,    0.1,   -0.2,   -0.3,   -0.1,    0.0,  999.0,  999.0
1998/12/21 15:10,  999.0,  999.0,  999.0,  999.0,  999.0,  999.0,    5.9,    7.0,    9.4,    9.5,   10.6,   11.1,   11.1,   12.3,   12.0,   14.1,   13.6,   12.8,   12.5,  999.0,    4.7,    3.4,    3.8,    7.2,    6.6,    4.6,    4.0,    7.0,    4.4,    6.5,    3.3,    5.9,    2.9,    0.5,   -0.0,   -0.2,   -0.2,  999.0,  999.0,   -0.0,  999.0,  999.0,  999.0,    5.2,  999.0,  999.0,    3.8,    3.3,    3.4,    3.0,  999.0,  999.0
1998/12/21 15:20,  999.0,  999.0,  999.0,  999.0,  999.0,  999.0,  999.0,  999.0,  999.0,  999.0,   10.8,  999.0,  999.0,  999.0,  999.0,    7.2,    5.9,    7.3,    7.9,    9.3,   11.4,   12.5,   12.9,   12.7,   16.6,   15.5,   13.3,    8.4,    9.6,    9.2,    5.4,    8.5,  999.0,    5.0,    4.6,    6.1,   11.2,  999.0,  999.0,    7.9,   10.5,   10.1,    9.5,    9.4,   11.3,   13.1,   13.3,   12.9,   12.7,  999.0,  999.0,  999.0
1998/12/21 15:30,  999.0,  999.0,  999.0,  999.0,  999.0,    8.6,    9.9,   10.0,   10.1,   10.0,   11.0,   11.9,   12.5,   13.4,   13.3,  999.0,   13.8,  999.0,  999.0,  999.0,  999.0,  999.0,  999.0,  999.0,   -0.8,   -0.3,    1.0,    0.2,  999.0,  999.0,  999.0,  999.0,  999.0,  999.0,    0.0,  999.0,  999.0,    4.8,  999.0,  999.0,  999.0,  999.0,  999.0,  999.0,  999.0,  999.0,  999.0,  999.0,  999.0,  999.0,  999.0,  999.0
1998/12/21 15:40,  999.0,  999.0,  999.0,  999.0,  999.0,    9.2,   10.1,   10.0,    9.8,   10.1,   10.8,   11.2,   12.8,   13.4,   13.1,   13.4,  999.0,  999.0,  999.0,  999.0,  999.0,   -0.4,  999.0,  999.0,   -0.1,    0.3,    0.1,   -0.0,  999.0,    0.5,   -0.8,   -0.1,    0.4,   -0.2,   -0.5,   -0.3,   -0.5,   -0.0,    0.0,    0.0,  999.0,  999.0,  999.0,  999.0,  999.0,  999.0,  999.0,  999.0,    0.2,  999.0,  999.0,  999.0
1998/12/21 15:50,  999.0,  999.0,  999.0,  999.0,  999.0,    7.5,    8.3,    8.5,    9.2,   10.0,   11.3,   11.7,   12.0,   13.6,  999.0,  999.0,  999.0,  999.0,  999.0,  999.0,  999.0,    0.1,   -0.0,   -0.1,    0.3,   -0.3,    0.0,    0.6,  999.0,  999.0,  999.0,    0.4,   -0.3,  999.0,    0.1,    0.2,   -0.2,   -1.5,   -0.3,    0.1,  999.0,  999.0,  999.0,  999.0,  999.0,    0.4,  999.0,  999.0,    0.4,   -0.2,  999.0,  999.0
1998/12/21 16:00,  999.0,  999.0,  999.0,  999.0,  999.0,  999.0,    9.2,    8.0,    9.1,   10.0,   10.8,   11.6,   12.8,   13.9,  999.0,   12.4,  999.0,  999.0,  999.0,  999.0,  999.0,  999.0,  999.0,   -0.3,    0.5,   -0.2,   -0.5,   -0.2,  999.0,   -0.1,    0.5,    0.4,  999.0,  999.0,    0.3,  999.0,    0.1,   -0.4,  999.0,   -0.0,  999.0,  999.0,  999.0,  999.0,  999.0,    0.1,    0.0,   -0.1,    0.1,  999.0,  999.0,  999.0
1998/12/21 16:10,  999.0,  999.0,  999.0,  999.0,  999.0,    6.1,  999.0,   11.1,   10.3,   11.2,   12.1,   12.5,   13.3,   13.8,  999.0,  999.0,  999.0,  999.0,  999.0,  999.0,  999.0,  999.0,  999.0,  999.0,   -0.4,   -0.1,    0.3,   -0.4,  999.0,  999.0,    0.1,  999.0,  999.0,    0.2,   -0.4,  999.0,   -0.1,    0.1,    0.1,    0.1,  999.0,  999.0,  999.0,  999.0,  999.0,  999.0,  999.0,  999.0,  999.0,  999.0,  999.0,  999.0
1998/12/21 16:20,  999.0,  999.0,  999.0,  999.0,  999.0,  999.0,    8.4,    8.9,    9.8,   11.3,   12.1,   12.5,   13.4,   14.8,  999.0,  999.0,  999.0,  999.0,  999.0,  999.0,  999.0,  999.0,  999.0,  999.0,    0.2,    0.0,    0.7,   -0.4,  999.0,  999.0,    0.0,   -0.0,   -0.1,  999.0,  999.0,   -0.5,   -0.2,   -0.2,   -0.0,  999.0,  999.0,  999.0,  999.0,  999.0,  999.0,    0.1,  999.0,  999.0,  999.0,    0.2,  999.0,  999.0
1998/12/21 16:30,  999.0,  999.0,  999.0,  999.0,  999.0,  999.0,    8.5,    8.9,    9.9,   10.2,   11.1,   11.5,   12.5,  999.0,   14.0,  999.0,  999.0,  999.0,  999.0,  999.0,  999.0,  999.0,  999.0,    0.4,    0.2,    0.0,    0.5,  999.0,  999.0,  999.0,  999.0,  999.0,  999.0,  999.0,  999.0,  999.0,    0.0,   -0.1,    0.0,    0.1,  999.0,  999.0,  999.0,  999.0,  999.0,  999.0,  999.0,    0.3,    0.2,    0.5,  999.0,  999.0
1998/12/21 16:40,  999.0,  999.0,  999.0,  999.0,  999.0,  999.0,    8.6,    8.9,   10.7,   11.4,  999.0,  999.0,  999.0,  999.0,  999.0,  999.0,  999.0,  999.0,  999.0,  999.0,  999.0,  999.0,  999.0,    1.5,    0.1,   -0.1,    0.6,    0.1,  999.0,  999.0,  999.0,  999.0,  999.0,  999.0,  999.0,  999.0,  999.0,    0.2,    0.3,    0.3,  999.0,  999.0,  999.0,  999.0,  999.0,    0.2,    0.4,  999.0,    0.3,  999.0,  999.0,  999.0
1998/12/21 16:50,  999.0,  999.0,  999.0,  999.0,  999.0,  999.0,    8.5,    9.0,    9.4,    9.9,   11.5,   12.4,   12.7,   13.2,   13.6,  999.0,  999.0,  999.0,  999.0,  999.0,  999.0,  999.0,  999.0,  999.0,   -0.1,    0.2,   -0.4,  999.0,  999.0,  999.0,  999.0,  999.0,    0.5,  999.0,  999.0,  999.0,   -0.2,    0.4,  999.0,   -0.1,  999.0,  999.0,  999.0,  999.0,  999.0,  999.0,   -0.5,  999.0,   -0.6,   -0.2,  999.0,  999.0
1998/12/21 17:00,  999.0,  999.0,  999.0,  999.0,  999.0,  999.0,    9.2,    9.5,   10.6,   11.2,   12.2,   12.6,   13.7,   13.2,   12.7,   13.2,   13.0,  999.0,  999.0,  999.0,  999.0,  999.0,  999.0,  999.0,  999.0,    0.0,   -0.2,  999.0,  999.0,  999.0,  999.0,  999.0,  999.0,   -0.1,  999.0,    0.5,    0.2,    0.1,  999.0,   -0.1,  999.0,  999.0,  999.0,  999.0,  999.0,  999.0,   -0.0,   -0.2,   -0.1,  999.0,  999.0,  999.0
1998/12/21 17:10,  999.0,  999.0,  999.0,  999.0,  999.0,    7.1,    8.6,    9.0,    9.8,   10.8,   11.3,   12.0,   13.5,   13.3,   13.6,   12.0,   13.1,  999.0,  999.0,  999.0,  999.0,  999.0,  999.0,  999.0,  999.0,   -0.6,   -0.5,  999.0,  999.0,  999.0,   -0.2,   -0.8,  999.0,  999.0,  999.0,  999.0,    0.0,   -0.0,  999.0,  999.0,  999.0,  999.0,  999.0,  999.0,  999.0,    0.2,   -0.3,    0.5,    0.0,  999.0,  999.0,  999.0
1998/12/21 17:20,  999.0,  999.0,  999.0,  999.0,  999.0,    6.8,    7.6,    7.8,    8.8,   10.3,   11.4,   12.9,   14.1,   12.8,   12.5,   12.5,   11.9,   12.2,   12.6,  999.0,  999.0,  999.0,  999.0,  999.0,  999.0,  999.0,  999.0,  999.0,  999.0,  999.0,  999.0,  999.0,  999.0,  999.0,  999.0,   -0.1,   -0.3,   -0.4,    0.5,   -0.0,  999.0,  999.0,  999.0,  999.0,  999.0,  999.0,   -0.2,   -0.1,   -0.5,    0.1,  999.0,  999.0
1998/12/21 17:30,  999.0,  999.0,  999.0,  999.0,  999.0,  999.0,    8.2,    8.7,    9.2,   10.3,   11.6,   11.8,   13.0,   12.7,   11.9,   12.9,   12.5,   13.2,   13.0,   12.6,  999.0,  999.0,  999.0,  999.0,  999.0,  999.0,  999.0,  999.0,  999.0,  999.0,  999.0,  999.0,  999.0,  999.0,    2.0,  999.0,  999.0,  999.0,    0.3,    0.1,  999.0,  999.0,  999.0,  999.0,  999.0,  999.0,   -0.0,    0.1,   -0.4,    0.3,  999.0,  999.0
1998/12/21 17:40,  999.0,  999.0,  999.0,  999.0,  999.0,  999.0,    7.7,    8.1,    9.3,   10.5,   12.0,   13.2,   13.2,   12.4,   12.1,   12.4,   12.3,   13.4,   12.4,   12.5,   13.2,   14.9,  999.0,  999.0,  999.0,  999.0,  999.0,  999.0,  999.0,  999.0,  999.0,  999.0,  999.0,  999.0,  999.0,  999.0,  999.0,    0.2,  999.0,    0.3,    1.5,  999.0,  999.0,  999.0,  999.0,  999.0,    0.3,    0.3,    0.1,    0.2,  999.0,  999.0
1998/12/21 17:50,  999.0,  999.0,  999.0,  999.0,  999.0,  999.0,  999.0,    8.2,    9.1,   10.0,   11.5,   12.2,   13.4,   14.4,   14.8,   12.7,   13.4,   13.0,   13.5,  999.0,   13.6,  999.0,  999.0,  999.0,  999.0,  999.0,  999.0,  999.0,  999.0,  999.0,  999.0,  999.0,  999.0,  999.0,  999.0,  999.0,    0.4,   -0.1,  999.0,   -0.9,  999.0,  999.0,  999.0,  999.0,  999.0,  999.0,   -0.2,    0.1,    0.4,    0.6,  999.0,  999.0
1998/12/21 18:00,  999.0,  999.0,  999.0,  999.0,  999.0,  999.0,    8.0,    8.1,    8.3,   10.2,   10.7,   11.9,   13.7,   15.1,   13.4,   13.0,   13.5,   15.7,   15.7,   13.8,   14.2,   16.1,  999.0,  999.0,  999.0,  999.0,  999.0,  999.0,  999.0,  999.0,  999.0,  999.0,  999.0,  999.0,  999.0,  999.0,    0.3,    0.2,    0.2,    0.3,  999.0,  999.0,  999.0,  999.0,  999.0,    1.0,    0.6,    0.0,    0.4,   -0.6,  999.0,  999.0
